Location: Homer
(59.6430°N, 151.5480°W)
Time: 04:11:58
(UTC-08:00)

Daily predictions for brighter satellites

Satellite Brightness Start Highest point End
(mag) Time Altitude Azimuth Time Altitude Azimuth Time Altitude Azimuth
CZ-4 R/B 3.7 00:00:36 10° NNE 00:05:20 76° ESE 00:08:32 21° S
COSMOS 2428 4.4 00:07:00 16° ESE 00:07:30 16° E 00:10:48 10° ENE
Cosmos 1674 4.4 00:05:29 10° N 00:08:32 23° ENE 00:09:51 19° E
Terra 2.3 00:08:06 23° S 00:10:59 56° WSW 00:15:43 10° NNW
Cosmos 841 Rocket 3.6 00:07:51 10° SW 00:13:06 81° WNW 00:18:21 10° NNE
Cosmos 2278 Rocket 2.6 00:09:11 10° NW 00:14:48 58° NE 00:18:29 22° ESE
ALOS 2 3.6 00:13:48 25° ESE 00:15:44 37° ENE 00:19:47 10° N
Cosmos 1408 Rocket 3.7 00:12:08 10° N 00:16:37 67° ENE 00:18:23 35° SE
Cosmos 921 Rocket 3.1 00:14:16 10° NNW 00:18:45 70° ENE 00:20:31 35° SE
Cosmos 2058 Rocket 4.2 00:14:54 10° SW 00:19:16 45° WNW 00:23:37 10° N
Cosmos 1743 Rocket 4.3 00:15:43 10° N 00:20:00 43° ENE 00:21:41 30° ESE
Cosmos 1707 3.5 00:19:49 10° NNW 00:23:37 46° W 00:25:21 27° SSW
Cosmos 540 Rocket 3.4 00:24:56 23° SSW 00:28:06 70° ESE 00:33:14 10° NE
USA 215 4.4 00:25:17 21° S 00:28:06 28° SW 00:33:36 10° WNW
Cosmos 1697 Rocket 3.4 00:23:49 10° WSW 00:29:23 55° NW 00:34:58 10° NE
DMSP B5D2-2 4.0 00:26:56 10° NNE 00:32:15 79° ESE 00:35:14 27° S
Cosmos 1689 Rocket 3.7 00:35:16 26° ENE 00:35:46 27° ENE 00:38:32 10° N
Cosmos 1076 Rocket 3.4 00:33:06 10° NNW 00:37:22 80° W 00:38:47 42° S
SL-16 R/B 2.1 00:33:29 17° SSW 00:37:55 73° SE 00:43:37 10° NE
Meteor 1-22 Rocket 4.3 00:35:58 32° SSE 00:38:33 60° E 00:44:02 10° NNE
Cosmos 1844 Rocket 2.6 00:33:20 10° NW 00:38:56 76° SW 00:41:24 34° SSE
CZ-2C R/B 4.4 00:36:13 17° E 00:39:06 29° NE 00:43:27 10° N
Cosmos 1844 3.7 00:34:11 10° NW 00:39:58 87° SW 00:42:37 33° SE
Cosmos 1378 3.5 00:40:13 10° NNW 00:43:58 57° W 00:44:57 42° SSW
Cosmos 2151 4.2 00:41:26 10° N 00:45:18 32° ENE 00:46:45 25° E
Cosmos 1766 Rocket 3.7 00:46:07 10° NNW 00:50:38 73° W 00:52:07 41° S
Cosmos 1072 Rocket 4.5 00:48:45 26° SSW 00:52:31 88° WNW 00:58:45 10° NNE
Cosmos 1980 Rocket 2.8 00:46:55 10° WSW 00:52:33 57° NW 00:58:13 10° NE
Cosmos 2360 Rocket 2.5 00:51:02 36° SSE 00:52:51 48° ESE 00:58:19 10° NE
Spot 2 3.9 00:49:27 10° NNE 00:53:32 69° ESE 00:54:32 49° S
CZ-4B R/B 2.2 00:53:18 40° E 00:53:56 45° ENE 00:57:27 10° N
CZ-4B R/B 4.4 00:51:46 10° N 00:56:18 44° WNW 01:00:48 10° SW
Cosmos 2369 Rocket 4.0 00:51:46 10° NW 00:56:41 30° NNE 01:01:36 10° ENE
CZ-4C R/B 2.8 00:57:46 64° E 00:57:57 66° ENE 01:01:10 10° NNW
Cosmos 1812 Rocket 4.2 00:55:29 22° SW 00:58:02 51° WNW 01:02:18 10° N
In-Cosmos 22 4.3 00:56:59 10° NNW 01:02:25 70° WSW 01:04:44 35° S
Lacrosse 4 Rocket 2.5 01:03:41 30° ESE 01:03:41 30° ESE 01:07:13 10° ENE
H-2A R/B 3.8 01:00:25 13° SW 01:03:34 23° W 01:07:28 10° NW
Cosmos 1655 Rocket 4.3 00:58:19 10° N 01:04:40 61° ENE 01:07:43 31° SE
Cosmos 1470 4.2 01:06:09 24° E 01:06:24 24° E 01:09:39 10° NNE
Cosmos 2263 Rocket 4.1 01:05:52 10° WNW 01:09:35 18° W 01:12:15 13° SW
Cosmos 1437 4.1 01:08:09 10° NNW 01:11:08 31° W 01:11:25 30° WSW
Cosmos 1953 2.5 01:12:25 51° SE 01:12:55 55° E 01:16:54 10° NNE
Cosmos 2219 Rocket 3.4 01:12:52 23° ESE 01:13:33 24° ESE 01:17:58 10° NE
Cosmos 1818 3.5 01:08:42 10° WNW 01:14:14 81° SW 01:16:36 35° SE
Cosmos 1805 3.4 01:14:10 51° ESE 01:14:29 53° E 01:18:20 10° NNE
Cosmos 1943 Rocket 4.2 01:10:22 10° NW 01:15:13 28° N 01:20:04 10° ENE
Cosmos 1544 3.8 01:17:02 38° E 01:17:02 38° E 01:20:28 10° NNE
GEOS 3 Rocket 3.5 01:16:06 10° ENE 01:21:14 68° SE 01:23:56 28° SW
ATLAS CENTAUR R/B 2.4 01:16:33 10° WNW 01:21:16 53° NNE 01:25:38 10° E
Cosmos 2034 Rocket 4.0 01:18:04 30° SSW 01:21:19 81° WNW 01:27:34 10° NNE
Exosat Rocket 4.3 01:17:28 10° NNW 01:22:21 49° NE 01:26:03 19° ESE
Cosmos 1538 Rocket 4.0 01:19:58 34° SSW 01:22:22 83° ESE 01:27:47 10° NNE
Cosmos 2056 Rocket 3.5 01:17:47 10° NNW 01:23:06 84° WSW 01:24:58 42° SSE
SL-14 R/B 4.2 01:20:09 10° N 01:23:47 37° ENE 01:24:37 33° E
Cosmos 2322 Rocket 2.5 01:19:45 10° SW 01:25:21 67° NW 01:31:01 10° NE
Cosmos 1092 Rocket 4.1 01:19:38 10° NNW 01:25:58 69° W 01:28:49 34° S
Cosmos 923 Rocket 4.2 01:26:14 43° SSE 01:27:28 53° ESE 01:32:35 10° NE
Cosmos 1842 Rocket 4.1 01:27:02 40° ESE 01:27:40 43° E 01:31:49 10° NNE
Cosmos 2297 3.7 01:22:20 10° NW 01:28:08 82° NE 01:30:50 33° SE
Cosmos 2322 3.6 01:26:29 36° SSW 01:28:53 72° ESE 01:34:35 10° NE
Cosmos 1371 Rocket 4.1 01:24:14 10° NW 01:29:22 63° WSW 01:30:53 44° S
SL-16 R/B 4.3 01:29:10 11° ESE 01:30:22 12° E 01:32:24 10° ENE
Landsat 5 3.1 01:30:14 67° SSE 01:30:44 90° NNE 01:34:37 10° NNW
Cosmos 304 Rocket 3.8 01:30:05 49° SSE 01:31:06 62° ESE 01:35:52 10° NE
Cosmos 1758 3.2 01:31:11 65° SSE 01:31:43 79° E 01:35:46 10° NNE
Cosmos 1766 3.6 01:31:08 44° SW 01:32:04 58° WNW 01:35:57 10° N
Cosmos 2237 Rocket 3.5 01:32:27 22° ESE 01:33:20 23° ESE 01:37:44 10° NE
Cosmos 2333 Rocket 3.4 01:33:43 25° ESE 01:34:40 27° ESE 01:39:24 10° NE
Cosmos 1634 Rocket 4.1 01:35:12 37° SSE 01:37:45 66° E 01:44:00 10° NNE
Cosmos 371 Rocket 3.8 01:35:13 20° SW 01:38:24 57° NW 01:43:13 10° NNE
Cosmos 1500 Rocket 3.7 01:36:51 10° NNW 01:41:08 61° W 01:41:57 50° SW
Cosmos 773 Rocket 3.9 01:40:05 42° SSW 01:41:54 78° ESE 01:47:14 10° NNE
Cosmos 1328 3.7 01:37:55 10° NNW 01:41:57 81° ENE 01:42:28 65° SE
H-2A R/B 2.9 01:38:21 10° NNE 01:42:22 44° E 01:42:41 43° ESE
Cosmos 1666 Rocket 4.3 01:38:37 10° N 01:42:47 44° ENE 01:44:04 34° ESE
Cosmos 1674 2.8 01:40:49 10° NNW 01:44:31 57° W 01:44:47 56° WSW
TIMED 4.5 01:41:49 10° NW 01:46:13 74° WSW 01:46:57 58° S
ATLAS 3B R/B 3.9 01:44:43 25° SE 01:46:21 28° ESE 01:52:19 10° ENE
Cosmos 1633 Rocket 4.0 01:42:14 10° N 01:46:29 42° ENE 01:47:59 31° ESE
Terra 4.3 01:47:55 10° WSW 01:49:50 12° W 01:51:45 10° WNW
COSMOS 2455 3.8 01:49:11 28° SE 01:50:07 29° ESE 01:55:12 10° ENE
COSMOS 2428 2.8 01:48:59 42° S 01:50:41 60° ESE 01:56:19 10° NE
ALOS 2 3.2 01:51:12 40° SW 01:52:02 45° W 01:56:17 10° NNW
Cosmos-2242 3.0 01:52:00 52° SW 01:52:57 73° WNW 01:57:17 10° NNE
Cosmos 2279 Rocket 4.3 01:51:32 35° SSE 01:53:56 55° E 01:59:59 10° NNE
Sich 1 3.6 01:51:28 10° N 01:55:50 51° ENE 01:57:09 38° ESE
Cosmos 1624 Rocket 4.4 01:51:02 10° NW 01:56:11 51° WSW 01:57:28 41° SSW
Cosmos 2221 3.5 01:55:36 32° ESE 01:56:22 34° E 02:00:22 10° NNE
Cosmos 1346 4.1 01:54:20 10° NNW 01:56:39 39° WNW 01:56:39 39° WNW
Cosmos 2278 Rocket 2.6 01:53:28 10° NW 01:58:53 47° WSW 02:00:18 39° SSW
Timation 1 Rocket 4.3 01:55:52 10° NW 02:01:54 86° SW 02:04:43 34° SE
Cosmos 2058 2.8 01:58:35 10° NNW 02:02:48 89° E 02:03:26 64° SSE
Cosmos 292 Rocket 4.4 02:03:23 37° SE 02:04:01 39° ESE 02:08:29 10° NE
Cosmos 1900 4.3 02:03:04 47° SSW 02:04:23 69° SE 02:09:21 10° NE
Cosmos 2266 Rocket 4.2 01:59:16 10° N 02:05:39 67° ENE 02:08:51 31° SE
Cosmos 1689 Rocket 3.5 02:08:18 33° WNW 02:08:18 33° WNW 02:10:51 10° NNW
Helios 1A Rocket 3.4 02:04:58 10° NNE 02:08:52 43° E 02:09:16 42° ESE
Cosmos 2237 4.1 02:07:15 39° SSW 02:09:28 78° SE 02:15:14 10° NE
Cosmos 2026 Rocket 4.3 02:10:06 10° NNW 02:16:06 55° W 02:18:25 35° SSW
SL-16 R/B 4.4 02:13:20 10° E 02:18:21 27° NE 02:23:23 10° N
CZ-2C R/B 2.9 02:17:18 48° S 02:18:37 73° WSW 02:23:44 10° NNW
Cosmos 1733 3.1 02:18:50 72° S 02:19:12 84° E 02:23:08 10° NNE
CZ-2C R/B 2.8 02:16:29 10° NNE 02:22:00 65° ESE 02:23:55 41° S
Cosmos 1844 Rocket 4.2 02:18:00 10° NW 02:22:02 21° WSW 02:23:02 20° WSW
SL-16 R/B 3.3 02:17:03 10° WSW 02:22:27 42° NNW 02:27:53 10° NE
Cosmos 2151 3.4 02:18:42 10° NNW 02:22:48 46° W 02:23:21 43° WSW
Cosmos 1452 Rocket 3.5 02:17:43 10° NW 02:23:00 66° WSW 02:24:28 46° S
Cosmos 2112 Rocket 4.0 02:21:25 43° SSW 02:23:14 85° ESE 02:28:38 10° NNE
CZ-4B R/B 3.0 02:27:02 26° W 02:27:02 26° W 02:30:04 10° NW
Cosmos 1703 3.2 02:24:40 10° NNW 02:28:41 79° ENE 02:29:15 63° SE
USA 81 4.0 02:30:54 44° S 02:32:38 81° E 02:37:57 10° N
Meteor 2-20 Rocket 4.4 02:26:59 10° NNW 02:33:09 77° W 02:35:39 38° S
SeaSat 1 4.4 02:29:42 10° E 02:33:55 29° NNE 02:38:09 10° NW
Cosmos 2360 Rocket 2.7 02:32:47 18° WSW 02:36:53 56° NW 02:42:31 10° NE
Cosmos 1980 Rocket 4.1 02:32:42 10° WNW 02:37:41 30° NNW 02:42:40 10° NE
Cosmos 1680 Rocket 3.6 02:36:14 35° SW 02:38:28 74° NW 02:43:50 10° NNE
Lacrosse 4 Rocket 1.7 02:40:01 36° WSW 02:41:44 71° NW 02:46:16 10° NE
Cosmos 2369 Rocket 2.6 02:36:11 10° NW 02:41:46 61° NE 02:47:20 10° ESE
Cosmos 1470 3.2 02:41:34 46° WSW 02:42:17 54° WNW 02:46:13 10° N
NOSS 0 Rocket 4.1 02:40:07 38° S 02:42:20 60° ESE 02:48:24 10° NE
CZ-3A R/B 4.0 02:42:40 31° S 02:43:39 32° SSE 02:47:48 10° E
Cosmos 1626 2.1 02:42:48 10° NNW 02:46:35 76° ENE 02:47:07 62° SE
Cosmos 1805 Rocket 4.0 02:43:00 10° NNW 02:47:18 48° W 02:48:01 44° SW
Aureole 2 Rocket 4.2 02:47:23 27° ESE 02:48:01 28° ESE 02:51:43 10° NE
Cosmos 1953 4.0 02:48:10 21° W 02:49:41 26° WNW 02:53:09 10° N
Cosmos 1544 4.4 02:51:32 27° W 02:52:18 30° WNW 02:55:38 10° N
Cosmos 1110 Rocket 4.4 02:47:13 10° NNW 02:52:24 61° NE 02:56:42 15° SE
Cosmos 1328 Rocket 4.5 02:51:52 31° SE 02:53:06 38° E 02:57:08 10° NNE
Cosmos 1437 Rocket 3.2 02:52:54 46° SE 02:53:40 54° E 02:57:44 10° NNE
Cosmos 2219 Rocket 2.1 02:54:35 38° SSW 02:56:51 85° SE 03:02:32 10° NE
GEOS 3 Rocket 4.1 02:54:16 10° ENE 02:59:21 60° NNW 03:04:23 10° W
NOSS 3-3 (A) 4.3 02:52:31 10° WNW 02:59:34 65° SW 03:07:12 10° SE
NOSS 3-3 (C) 4.3 02:52:37 10° WNW 02:59:40 66° SW 03:07:18 10° SE
SL-14 R/B 4.2 02:56:29 10° NNW 02:59:58 33° W 03:00:04 33° W
Cosmos 1943 Rocket 3.2 02:54:44 10° NW 03:00:16 48° NE 03:05:45 10° ESE
ATLAS CENTAUR R/B 1.4 02:55:56 10° WNW 03:00:36 70° SW 03:01:59 42° SSE
PSLV R/B 4.4 03:09:31 43° WSW 03:10:04 45° W 03:14:10 10° NNW
Cosmos 2322 Rocket 3.9 03:05:22 10° W 03:10:22 31° NNW 03:15:24 10° NE
SL-16 R/B 2.7 03:11:03 32° SSE 03:13:10 47° ESE 03:18:37 10° NE
Cosmos 2228 Rocket 3.3 03:13:01 41° SSE 03:14:29 67° E 03:19:02 10° NNE
Cosmos 1420 Rocket 4.3 03:10:18 10° NW 03:15:19 48° WSW 03:16:38 39° SSW
Cosmos 1340 Rocket 3.4 03:12:17 10° N 03:16:17 55° ENE 03:18:08 28° SE
Cosmos 2237 Rocket 2.2 03:14:17 36° SSW 03:16:42 82° SE 03:22:27 10° NE
H-2A R/B 3.6 03:14:05 10° N 03:17:53 34° WNW 03:19:19 26° W
Cosmos 2333 Rocket 2.2 03:15:43 34° SW 03:18:21 90° SE 03:24:12 10° NE
Cosmos 2263 4.4 03:12:37 10° NW 03:18:26 74° NE 03:24:15 10° SE
Cosmos 1869 Rocket 4.4 03:14:14 10° N 03:18:32 47° ENE 03:21:30 19° SE
Cosmos 1515 Rocket 4.0 03:18:33 35° SSE 03:20:02 51° E 03:24:17 10° NNE
Cosmos 1666 Rocket 4.4 03:16:41 10° NNW 03:20:36 33° W 03:21:12 32° WSW
Coronas F rocket 3.6 03:18:35 10° NNE 03:20:43 21° ENE 03:21:46 17° E
Cosmos 1980 3.6 03:19:13 35° SW 03:21:46 90° NW 03:27:29 10° NE
Exosat Rocket 4.1 03:19:04 10° NW 03:23:46 41° WSW 03:25:06 35° SSW
Cosmos 1633 Rocket 3.8 03:20:11 10° NNW 03:24:17 37° W 03:25:03 34° WSW
Landsat 4 3.7 03:27:01 40° SSE 03:28:17 77° ENE 03:32:04 10° NNW
Cosmos 1908 3.7 03:29:32 39° SSE 03:30:41 55° E 03:34:31 10° NNE
Cosmos 192 4.3 03:29:21 39° SSW 03:31:11 75° ESE 03:36:10 10° NE
Sich 1 4.1 03:29:30 10° NNW 03:33:23 30° W 03:34:08 28° WSW
Cosmos 2221 3.2 03:32:29 33° WSW 03:33:54 44° WNW 03:38:10 10° N
Cosmos 1933 Rocket 3.8 03:30:05 10° NNW 03:34:23 53° W 03:35:29 41° SW
COSMOS 2428 3.5 03:31:00 17° WSW 03:35:12 49° NW 03:40:46 10° NE
COSMOS 2455 2.8 03:32:20 30° SW 03:35:28 86° SE 03:41:33 10° NE
ATLAS 3B R/B 2.9 03:31:57 28° SW 03:36:12 70° SE 03:43:24 10° ENE
CZ-4C R/B 3.1 03:36:44 27° S 03:39:01 37° SE 03:44:46 10° ENE
Cosmos 1470 Rocket 4.0 03:35:34 10° NNW 03:39:50 46° W 03:40:52 38° SW
GRACE-1 4.4 03:39:57 50° ESE 03:40:14 53° E 03:43:03 10° N
GRACE-2 4.4 03:40:23 50° ESE 03:40:41 54° E 03:43:31 10° N
Cosmos 2278 Rocket 4.2 03:39:45 10° WNW 03:41:39 12° W 03:42:07 12° W
NOSS 2-1 (D) 4.4 03:37:05 10° WNW 03:42:37 72° SW 03:50:05 10° SE
Cosmos 1302 Rocket 4.2 03:37:31 10° NNW 03:42:50 76° NE 03:48:05 10° SE
NOSS 2-1 (C) 4.4 03:38:07 10° WNW 03:43:40 72° SW 03:51:08 10° SE
Helios 1A Rocket 4.0 03:40:24 10° N 03:44:06 34° WNW 03:45:35 25° W
Cosmos 292 Rocket 4.3 03:41:53 27° WSW 03:44:15 51° NW 03:48:57 10° NNE
Cosmos 405 3.2 03:43:50 49° WSW 03:44:29 60° WNW 03:48:02 10° N
Cosmos 1892 4.1 03:43:00 10° N 03:46:39 37° ENE 03:50:15 10° SE
S3M 4.4 03:44:29 20° SSE 03:48:47 58° E 03:55:02 10° NNE
In-Cosmos 22 Rocket 4.1 03:44:50 10° NNW 03:50:12 83° ENE 03:54:14 18° SSE
Meteor 2-2 Rocket 4.4 03:49:37 26° S 03:53:05 73° E 03:58:55 10° NNE
ERBS 4.2 03:54:47 19° SE 03:54:47 19° SE 03:57:09 10° E
Cosmos 1603 4.5 03:52:56 23° S 03:56:04 43° ESE 04:01:29 10° NE
Cosmos 1726 3.5 03:54:39 19° SE 03:56:41 32° E 04:00:04 10° NNE
Cosmos 1331 Rocket 4.0 03:51:34 10° NW 03:56:48 66° WSW 04:00:26 20° SSE
IRS-P3 4.4 03:54:34 10° NNE 03:59:55 65° ESE 04:03:08 24° S
SL-08 R/B 3.4 03:58:45 31° S 04:00:48 59° WSW 04:05:32 10° NNW
CZ-2D R/B 3.9 03:56:37 10° NNE 04:00:59 25° E 04:05:16 10° SE
SL-16 R/B 2.7 03:55:03 10° SSE 04:01:14 75° ENE 04:07:28 10° NNW
ARIANE 5 R/B 4.1 03:56:40 10° NNE 04:01:16 30° E 04:05:50 10° SSE
Cosmos 1745 Rocket 4.0 03:55:12 10° NNW 04:01:36 78° W 04:06:13 20° S
CZ-2C R/B 3.8 03:57:06 10° N 04:02:05 36° NW 04:05:26 19° WSW
Cosmos 1709 Rocket 4.4 03:56:43 10° N 04:03:06 66° ENE 04:09:23 10° SSE
Cosmos 1553 Rocket 4.1 04:03:20 21° S 04:07:33 73° E 04:13:38 10° NNE
Cosmos 1151 Rocket 3.0 04:05:42 31° S 04:07:46 85° ESE 04:12:11 10° NNE
SL-16 R/B 4.2 04:03:10 10° WNW 04:07:57 27° N 04:12:46 10° NE
ADEOS 4.5 04:03:41 10° NNE 04:08:41 43° E 04:12:46 15° SSE
SL-08 R/B 4.5 04:03:15 10° NNW 04:09:17 63° W 04:13:09 23° S
Cosmos 1269 Rocket 4.1 04:07:32 28° SSW 04:10:22 77° ESE 04:15:42 10° NNE
SeaSat 1 2.8 04:06:02 10° SE 04:10:57 69° NE 04:15:54 10° NW
Cosmos 1867 3.8 04:09:21 28° SSW 04:12:12 60° SE 04:17:37 10° ENE
AQUA 4.2 04:07:43 10° NNE 04:12:28 61° ESE 04:15:29 22° S
Meteor 2-3 Rocket 3.7 04:07:10 10° NNW 04:12:57 83° WSW 04:18:00 14° S
Cosmos 1300 3.3 04:11:06 24° SSE 04:13:08 53° E 04:16:55 10° NNE
PSLV R/B 3.9 04:09:36 10° NNE 04:14:22 67° WNW 04:16:49 28° SW
Cosmos 158 Rocket 4.5 04:13:28 22° S 04:16:29 49° ESE 04:21:16 10° NE
Meteor 1-4 Rocket 2.6 04:16:54 32° S 04:18:21 68° ESE 04:21:52 10° NNE
Lacrosse 4 Rocket 3.1 04:17:03 10° W 04:21:07 33° NNW 04:25:14 10° NE
Cosmos 1626 4.0 04:19:07 10° NW 04:21:33 17° W 04:21:49 16° W
Cosmos 2360 Rocket 3.9 04:17:05 10° WNW 04:22:02 29° NNW 04:26:59 10° NE
NPP 3.7 04:17:04 10° NNE 04:22:31 80° ESE 04:26:09 22° SSW
USA 161 0.7 04:22:58 85° WSW 04:22:58 85° WSW 04:25:17 10° NNW
Cosmos 1980 Rocket 4.3 04:18:26 10° NW 04:23:20 28° N 04:28:14 10° ENE
Aureole 2 Rocket 3.2 04:21:26 29° SW 04:23:29 61° NW 04:27:51 10° NNE
Cosmos 1607 4.0 04:20:25 24° SW 04:24:14 71° SE 04:30:22 10° NE
Cosmos 1943 4.4 04:20:32 14° S 04:24:48 35° ESE 04:29:52 10° NE
UNK 3.7 04:20:22 10° SSE 04:24:55 86° ENE 04:29:34 10° NNW
Cosmos 2369 Rocket 2.5 04:20:26 10° NW 04:25:43 43° WSW 04:29:40 17° S
Cosmos 1455 4.3 04:22:58 10° SE 04:26:11 24° E 04:29:23 10° NNE
Cosmos 1356 Rocket 3.5 04:22:15 10° NNW 04:26:16 54° W 04:28:12 27° SSW
NOSS 0 Rocket 4.5 04:24:06 16° WSW 04:28:59 53° NW 04:35:05 10° NE
Cosmos 1437 Rocket 4.3 04:28:22 20° W 04:30:17 28° WNW 04:33:54 10° N
Cosmos 1328 Rocket 4.3 04:28:56 24° WSW 04:30:56 38° WNW 04:35:01 10° N
Resurs 1-4 Rocket 3.2 04:26:30 10° NNE 04:31:28 39° E 04:36:23 10° SSE
USA 238 DEB 3.8 04:27:57 22° SW 04:32:48 72° SE 04:39:50 10° ENE
USA 238 3.8 04:28:04 22° SW 04:32:54 72° SE 04:39:55 10° ENE
Okean O Rocket 4.2 04:30:40 10° NE 04:33:38 17° E 04:36:36 10° SE
Cosmos 1408 4.4 04:32:47 10° N 04:36:13 33° ENE 04:39:38 10° SE
Cosmos 1992 Rocket 4.3 04:31:31 10° NNW 04:36:47 73° NE 04:42:01 10° SE
Cosmos 2292 Rocket 2.6 04:34:27 10° NNW 04:37:25 85° ENE 04:39:33 18° SSE
Cosmos 1271 Rocket 2.8 04:36:25 24° SSW 04:38:47 88° ESE 04:42:50 10° NNE
ATLAS CENTAUR R/B 3.0 04:35:47 10° WNW 04:38:14 18° WSW 04:38:14 18° WSW
Cosmos 2219 Rocket 3.3 04:36:18 11° W 04:41:24 38° NNW 04:46:40 10° NE
ERS-2 3.0 04:38:22 10° NNE 04:42:00 46° ESE 04:44:54 15° S
Cosmos 1943 Rocket 2.2 04:38:39 10° NW 04:44:16 61° WSW 04:49:49 10° SSE
CBERS-1 4.0 04:39:26 10° NNE 04:44:36 83° WNW 04:48:18 19° SSW
NOSS 3-2 (A) 4.1 04:42:54 18° SSW 04:47:26 52° SE 04:54:09 10° ENE
Cosmos 2251 Rocket 3.9 04:44:20 16° S 04:48:23 59° ESE 04:53:33 10° NE
Sich 1 Rocket 4.2 04:44:14 10° N 04:48:37 59° ENE 04:52:58 10° SSE
MTI 4.2 04:47:06 10° SSE 04:50:26 67° ENE 04:53:47 10° NNW
Cosmos 1825 3.3 04:47:32 10° N 04:51:14 45° ENE 04:54:53 10° SE
Coronas F rocket 2.2 04:50:01 10° NNW 04:52:27 30° W 04:52:41 29° WSW
Cosmos 1340 Rocket 4.1 04:49:14 10° NW 04:52:31 24° W 04:53:45 21° WSW
Cosmos 2322 Rocket 4.3 04:51:16 10° NW 04:56:02 27° N 05:00:49 10° ENE
Cosmos 1869 Rocket 4.4 04:52:22 10° NNW 04:56:20 33° W 04:58:38 20° SW
SL-16 R/B 2.6 04:52:55 17° WSW 04:57:17 57° NW 05:02:56 10° NE
CENTAUR R/B 4.4 04:56:20 10° SSE 05:01:17 24° ESE 05:06:40 10° ENE
Cosmos 2237 Rocket 3.2 04:56:06 11° W 05:01:20 39° NNW 05:06:41 10° NE
Cosmos 2285 Rocket 4.0 04:56:11 10° NNW 05:02:40 81° WSW 05:09:05 10° SSE
Cosmos 2333 Rocket 3.4 04:57:55 10° W 05:03:18 38° NNW 05:08:42 10° NE
Pageos (A) 3.9 05:02:38 10° N 05:05:01 47° ENE 05:07:03 10° SSE
NOSS 3-2 (C) 4.1 05:00:06 16° SSW 05:05:11 54° SE 05:11:59 10° ENE
BREEZE-M DEB (TANK) 3.9 05:04:54 18° SW 05:07:23 34° SSE 05:12:56 10° ESE
Cosmos 2315 Rocket 4.1 05:06:26 10° S 05:12:41 80° E 05:19:02 10° NNE
Cosmos 1656 Rocket 3.5 05:07:50 10° NW 05:13:16 68° WSW 05:18:38 10° SSE
Iridium 2 3.9 05:10:03 10° NNW 05:13:46 51° W 05:17:04 13° SSW
Cosmos 494 Rocket 4.2 05:11:27 13° SSW 05:16:14 71° ESE 05:21:29 10° NE
Cosmos 1862 Rocket 4.2 05:14:17 10° S 05:18:35 56° E 05:22:57 10° NNE
Cosmos 1184 Rocket 3.1 05:15:35 10° NNW 05:18:56 49° W 05:22:16 10° S
Cosmos 2242 Rocket 3.6 05:14:35 11° SSW 05:18:58 87° W 05:23:35 10° NNE
UNKNOWN OBJECT B 3.3 05:15:19 10° NNE 05:18:59 55° E 05:22:40 10° S
Cosmos 1862 3.4 05:15:19 10° NNW 05:19:20 84° ENE 05:23:19 10° SSE
COSMOS 2428 4.4 05:15:51 10° WNW 05:20:45 28° N 05:25:39 10° NE
COSMOS 2455 3.6 05:16:04 10° W 05:21:56 48° NNW 05:27:48 10° ENE
Cosmos 1892 3.5 05:18:56 10° NNW 05:22:26 33° W 05:25:18 14° SSW
IRS-1C 4.4 05:17:35 10° NNE 05:22:50 58° WNW 05:27:33 13° SW
Okean 2 Rocket 3.9 05:19:46 10° N 05:24:14 57° ENE 05:28:41 10° SSE
ATLAS 5 CENTAUR R/B 3.3 05:20:21 10° S 05:24:49 33° SE 05:29:38 10° ENE
IRAS Rocket 4.3 05:19:57 10° NNE 05:25:35 73° WNW 05:30:58 11° SSW
EO 1 Del DPAF 3.7 05:22:08 10° S 05:25:51 42° W 05:29:37 10° NNW
CZ-4C R/B 2.5 05:21:54 14° WSW 05:27:04 89° NNW 05:33:47 10° ENE
ATLAS 3B R/B 3.1 05:19:40 10° W 05:27:12 70° NNW 05:34:17 10° ENE
Meteor 2-10 4.1 05:24:02 10° SSW 05:29:32 85° WNW 05:34:52 10° NNE
ERBS 2.9 05:28:13 16° SW 05:30:49 45° SSE 05:34:13 10° E
Meteor 1-27 4.4 05:26:07 12° SSW 05:31:15 62° WNW 05:36:50 10° NNE
Cosmos 1726 3.0 05:29:20 15° SW 05:32:03 36° WNW 05:35:32 10° N
Cosmos 1733 Rocket 3.5 05:29:22 10° NNW 05:33:30 42° W 05:37:38 10° SSW
IRS-1D 3.6 05:28:29 10° NNE 05:33:40 78° WNW 05:38:56 10° SSW
Spot 4 Rocket 4.2 05:28:54 10° NNE 05:34:00 61° WNW 05:39:00 10° SW
Cosmos 389 Rocket 3.2 05:32:40 10° S 05:36:07 54° E 05:39:36 10° NNE
Cosmos 1869 3.4 05:32:36 10° S 05:36:36 78° E 05:40:35 10° NNE
CZ-2C R/B 3.6 05:35:09 10° S 05:39:33 65° WSW 05:44:01 10° NNW
Cosmos 1603 4.0 05:34:50 12° WSW 05:40:06 62° NW 05:45:51 10° NE
ARIANE 5 R/B 2.7 05:35:37 10° NNE 05:40:50 68° WNW 05:46:02 10° SSW
CZ-2D R/B 2.1 05:36:21 10° NNE 05:41:42 80° WNW 05:46:56 10° SSW
Cosmos 1782 Rocket 3.6 05:38:45 10° NNW 05:43:09 89° E 05:47:30 10° SSE
CZ-4B R/B 4.2 05:40:13 10° NNE 05:43:37 35° E 05:47:02 10° SSE
Cosmos 1697 Rocket 3.8 05:39:49 10° NW 05:45:19 50° NE 05:50:47 10° ESE
SL-16 R/B 3.3 05:39:58 10° SSW 05:45:27 32° W 05:50:59 10° NNW
Cosmos 1707 Rocket 4.4 05:43:33 11° SW 05:47:29 37° WNW 05:51:41 10° N
ADEOS 4.0 05:43:20 10° NNE 05:48:22 48° WNW 05:53:21 10° SW
SeaSat 1 3.0 05:44:19 10° S 05:48:49 35° WSW 05:53:21 10° NW
Cosmos 1933 4.1 05:44:52 10° S 05:48:54 57° E 05:52:57 10° NNE
Cosmos 1300 4.1 05:46:09 11° WSW 05:49:10 25° WNW 05:52:25 10° N
Meteor 1-14 Rocket 4.5 05:46:06 10° NNW 05:51:54 83° ENE 05:57:49 10° SSE
SL-16 R/B 4.1 05:48:36 10° NW 05:53:41 32° NNE 05:58:45 10° E
Meteor 1-4 Rocket 4.3 05:51:26 10° WSW 05:53:59 19° NW 05:56:34 10° N
Cosmos 2278 3.8 05:48:45 10° NW 05:54:32 88° NE 06:00:17 10° SE
Cosmos 1867 4.0 05:50:27 10° WSW 05:55:55 62° NNW 06:01:24 10° ENE
Nadezhda 1 Rocket 4.5 05:50:08 10° S 05:56:23 67° E 06:02:45 10° NNE
CZ-2D R/B 3.6 05:53:03 10° NNE 05:57:32 86° WNW 06:01:54 10° SSW
ASTRO F (AKARI) 4.4 05:54:20 10° S 05:57:47 64° WSW 06:01:05 10° NNW
Lacrosse 4 Rocket 3.4 05:56:56 10° NW 06:00:56 30° N 06:04:57 10° ENE
Cosmos 1455 2.5 05:57:51 10° SSW 06:01:41 52° WNW 06:05:32 10° N
Cosmos 1908 Rocket 3.9 05:59:16 10° NNW 06:03:28 43° W 06:07:37 10° SSW
USA 234 4.0 05:58:58 10° ENE 06:05:11 44° SSE 06:11:23 10° SW
Cosmos 2360 Rocket 4.1 06:02:49 10° NW 06:07:41 28° NNE 06:12:33 10° ENE
Cosmos 2369 Rocket 4.0 06:07:27 10° W 06:08:21 10° W 06:09:14 10° WSW
Cosmos 1943 3.3 06:02:53 10° SW 06:08:34 72° NW 06:14:15 10° NE
Cosmos 1980 Rocket 3.4 06:03:04 10° NW 06:08:38 49° NE 06:14:09 10° ESE
Cosmos 2369 3.8 06:03:06 10° NW 06:08:52 84° SW 06:14:39 10° SE
MOZ.5/SAFIR/RUBIN 5/SL-8 4.3 06:05:01 10° SSW 06:09:23 39° W 06:13:47 10° NNW
Cosmos 1570 Rocket 4.3 06:04:22 10° NNW 06:09:38 75° NE 06:14:52 10° SE
Okean O Rocket 1.8 06:06:13 10° NNE 06:10:44 83° ESE 06:15:13 10° SSW
Cosmos 2074 Rocket 4.3 06:05:15 10° NNW 06:11:10 47° W 06:17:04 10° SSW
Resurs 1-4 Rocket 2.4 06:06:24 10° NNE 06:11:31 53° WNW 06:16:38 10° SW
Cosmos 1607 4.3 06:05:36 10° W 06:11:43 61° NNW 06:17:51 10° ENE
